This is the latest recevied weather packets stored in our database for station/object SV9TNF-57. If no packets are shown the sender has not sent any weather packets the latest 10 day(s).
| Time | Temp. | Humidity | Pressure | Rain* | Wind** | Luminosity | Snow |
|---|---|---|---|---|---|---|---|
| 1788367429 | 28.89° C | 46% | 994.5 hPa | 0 mm | 0 m/s | - | - |
| 1788367129 | 29.44° C | 45% | 994.8 hPa | 0 mm | 0 m/s | - | - |
| 1788366829 | 30° C | 43% | 994.7 hPa | 0 mm | 0 m/s | - | - |
| 1788366529 | 30° C | 43% | 994.8 hPa | 0 mm | 0 m/s | - | - |
| 1788366229 | 30.56° C | 41% | 994.8 hPa | 0 mm | 0 m/s | - | - |
| 1788365928 | 30.56° C | 41% | 994.7 hPa | 0 mm | 0 m/s | - | - |
| 1788365628 | 30.56° C | 41% | 994.8 hPa | 0 mm | 0 m/s | - | - |
| 1788365328 | 30° C | 42% | 994.8 hPa | 0 mm | 0 m/s | - | - |
| 1788365028 | 30° C | 44% | 994.8 hPa | 0 mm | 3.58 m/s, 143° | - | - |
| 1788364728 | 30.56° C | 53% | 994.9 hPa | 0 mm | 0 m/s | - | - |
| 1788364428 | 31.11° C | 51% | 994.6 hPa | 0 mm | 0 m/s | - | - |
| 1788364128 | 31.67° C | 49% | 994.7 hPa | 0 mm | 0.89 m/s, 20° | - | - |
| 1788363828 | 31.67° C | 37% | 994.8 hPa | 0 mm | 0.45 m/s, 259° | - | - |
| 1788363528 | 31.67° C | 36% | 994.8 hPa | 0 mm | 0.45 m/s, 346° | - | - |
| 1788363250 | 32.22° C | 36% | 994.7 hPa | 0 mm | 0.45 m/s, 263° | - | - |
| 1788362928 | 32.22° C | 34% | 994.5 hPa | 0 mm | 0 m/s | - | - |
| 1788362627 | 32.22° C | 36% | 994.7 hPa | 0 mm | 0.89 m/s, 288° | - | - |
| 1788362328 | 31.11° C | 39% | 994.7 hPa | 0 mm | 1.79 m/s, 307° | - | - |
| 1788362027 | 31.67° C | 38% | 994.7 hPa | 0 mm | 5.81 m/s, 352° | - | - |
| 1788361727 | 31.67° C | 37% | 994.9 hPa | 0 mm | 4.92 m/s, 2° | - | - |
| 1788361427 | 31.67° C | 37% | 994.7 hPa | 0 mm | 1.34 m/s, 309° | - | - |
| 1788361127 | 31.67° C | 37% | 994.8 hPa | 0 mm | 2.24 m/s, 342° | - | - |
| 1788360827 | 31.67° C | 38% | 994.6 hPa | 0 mm | 2.68 m/s, 315° | - | - |
| 1788360527 | 31.67° C | 37% | 994.5 hPa | 0 mm | 2.68 m/s, 314° | - | - |
| 1788360227 | 31.67° C | 38% | 994.6 hPa | 0 mm | 3.58 m/s, 283° | - | - |
* Rain latest hour (hover to see other rain measurements)
** Current wind speed in m/s (hover to see current wind gust speed)